Location: New Canada
(47.1017°N, 68.5042°W)
Time: 13:22:36
(UTC+00:00)

BlueWalker 3 - Visible Passes

Search period start: 30 November 2022 00:00
Search period end: 10 December 2022 00:00
Orbit: 500 x 519 km, 53.2° (Epoch: 29 November)

Date Brightness Start Highest point End Pass type
(mag) Time Alt. Az. Time Alt. Az. Time Alt. Az.
30 Nov 2.3 21:18:56 10° WSW 21:22:48 56° NNW 21:26:39 10° ENE visible
30 Nov 3.1 22:58:26 10° WNW 23:01:46 32° N 23:01:46 32° N visible
01 Dec 3.0 22:40:06 10° WNW 22:43:39 32° N 22:44:06 31° NNE visible
02 Dec 3.0 22:21:43 10° WNW 22:25:18 32° N 22:26:27 27° NE visible
03 Dec 4.9 00:00:42 10° WNW 00:01:16 14° NW 00:01:16 14° NW visible
03 Dec 3.0 22:03:22 10° WNW 22:06:56 32° N 22:08:48 21° NE visible
03 Dec 4.3 23:42:18 10° WNW 23:43:38 20° NW 23:43:38 20° NW visible
04 Dec 3.0 21:45:00 10° WNW 21:48:34 32° N 21:51:12 15° ENE visible
04 Dec 3.6 23:23:55 10° WNW 23:26:02 29° NW 23:26:02 29° NW visible
05 Dec 2.9 21:26:36 10° WNW 21:30:11 32° N 21:33:39 11° ENE visible
05 Dec 2.7 23:05:31 10° WNW 23:08:29 44° NNW 23:08:29 44° NNW visible
06 Dec 2.0 22:47:06 10° WNW 22:50:59 60° NNE 22:51:00 60° NNE visible
07 Dec 1.9 22:28:41 10° WNW 22:32:34 63° NNE 22:33:37 43° E visible
08 Dec 5.0 00:07:38 10° WNW 00:08:27 15° W 00:08:27 15° W visible
08 Dec 1.9 22:10:15 10° WNW 22:14:09 66° NNE 22:16:22 24° ESE visible
08 Dec 4.4 23:49:16 10° WNW 23:51:14 22° WSW 23:51:14 22° WSW visible
09 Dec 1.9 21:51:50 10° WNW 21:55:44 68° NNE 21:59:18 12° ESE visible
09 Dec 3.9 23:30:53 10° WNW 23:34:09 26° SW 23:34:10 26° SW visible
